Clinton, IA

7:36 AM CST on December 14, 2019 (GMT -0600)
Clinton Municipal

Weather History for KCWI - October, 2019

Change the Weather History Date:

Saturday, October 19, 2019

  Actual Average Record
Temperature  
Mean Temperature 54 °F -  
Max Temperature 62 °F 59 °F 86 °F (1953)
Min Temperature 45 °F 37 °F 18 °F (1992)
Degree Days  
Heating Degree Days 12    
Growing Degree Days 4 (Base 50)    
Moisture  
Dew Point 48 °F    
Average Humidity 86    
Maximum Humidity 100    
Minimum Humidity 60    
Precipitation  
Precipitation 0.00 in - - ()
Sea Level Pressure  
Sea Level Pressure 29.79 in    
Wind  
Wind Speed 7 mph ()    
Max Wind Speed 13 mph    
Max Gust Speed -    
Visibility 8.0 miles    
Events Fog , Rain    
Averages and records for this station are not official NWS values.
T = Trace of Precipitation, MM = Missing Value Source: Averaged Metar Reports

Daily Weather History Graph

Daily Weather History Graph

Search for Another Location

Airport or City:

Astronomy

Oct. 19, 2019 Rise Set
Actual Time 7:17 AM CDT 6:13 PM CDT
Civil Twilight 6:49 AM CDT 6:42 PM CDT
Nautical Twilight 6:17 AM CDT 7:14 PM CDT
Astronomical Twilight 5:45 AM CDT 7:46 PM CDT
Moon 10:19 PM CDT (10/19) 12:54 PM CDT (10/19)
Length of Visible Light 11h 52m
Length of Day
10h 56m
Waning Gibbous, 69% of the Moon is Illuminated
Oct 19
Waning Gibbous
Oct 21
Last Quarter
Oct 27
New
Nov 4
First Quarter
Nov 12
Full

Hourly Weather History & Observations

Time (CDT) Temp. Windchill Dew Point Humidity Pressure Visibility Wind Dir Wind Speed Gust Speed Precip Events Conditions
12:56 AM 50.0 °F - 41.0 °F 71% 29.83 in 10.0 mi South 9.2 mph - N/A   Partly Cloudy
1:56 AM 45.0 °F 40.6 °F 39.9 °F 82% 29.84 in 10.0 mi SE 8.1 mph - N/A   Clear
2:56 AM 45.0 °F 41.2 °F 41.0 °F 86% 29.84 in 10.0 mi SE 6.9 mph - N/A   Clear
3:56 AM 48.0 °F - 42.1 °F 80% 29.82 in 10.0 mi SE 6.9 mph - N/A   Clear
4:56 AM 48.0 °F - 42.1 °F 80% 29.81 in 10.0 mi SSE 8.1 mph - N/A   Clear
5:56 AM 46.9 °F - 42.1 °F 83% 29.80 in 10.0 mi SSE 11.5 mph - N/A   Clear
6:56 AM 46.9 °F - 42.1 °F 83% 29.80 in 10.0 mi South 9.2 mph - N/A   Clear
7:56 AM 48.9 °F - 42.1 °F 77% 29.80 in 10.0 mi South 9.2 mph - N/A   Clear
8:56 AM 53.1 °F - 44.1 °F 71% 29.80 in 10.0 mi South 11.5 mph - N/A   Clear
9:56 AM 55.9 °F - 45.0 °F 67% 29.79 in 10.0 mi SSW 11.5 mph - N/A   Clear
10:56 AM 60.1 °F - 46.9 °F 62% 29.78 in 10.0 mi SW 12.7 mph - N/A   Clear
11:56 AM 62.1 °F - 48.0 °F 60% 29.76 in 10.0 mi South 9.2 mph - N/A   Clear
12:56 PM 61.0 °F - 46.9 °F 60% 29.76 in 10.0 mi WSW 11.5 mph - N/A   Partly Cloudy
1:56 PM 60.1 °F - 48.0 °F 64% 29.75 in 10.0 mi West 8.1 mph - N/A   Mostly Cloudy
2:56 PM 59.0 °F - 48.0 °F 67% 29.75 in 10.0 mi West 11.5 mph - 0.00 in Rain Light Rain
3:56 PM 55.9 °F - 51.1 °F 84% 29.75 in 10.0 mi West 4.6 mph - 0.00 in Rain Light Rain
4:56 PM 54.0 °F - 51.1 °F 90% 29.76 in 10.0 mi West 5.8 mph - 0.00 in Rain Light Rain
5:56 PM 53.1 °F - 51.1 °F 93% 29.78 in 10.0 mi WNW 3.5 mph - 0.00 in   Overcast
6:56 PM 52.0 °F - 51.1 °F 97% 29.78 in 5.0 mi West 4.6 mph - 0.00 in Rain Light Rain
7:17 PM 51.8 °F - 51.8 °F 100% 29.77 in 9.0 mi Calm Calm - 0.00 in   Overcast
7:56 PM 52.0 °F - 51.1 °F 97% 29.79 in 9.0 mi WSW 3.5 mph - 0.00 in   Overcast
8:29 PM 51.8 °F - 51.8 °F 100% 29.77 in 8.0 mi WSW 3.5 mph - N/A   Overcast
8:56 PM 51.1 °F - 51.1 °F 100% 29.79 in 6.0 mi WSW 3.5 mph - N/A   Overcast
9:12 PM 50.0 °F - 50.0 °F 100% 29.78 in 1.5 mi West 4.6 mph - N/A   Mostly Cloudy
9:16 PM 50.0 °F - 48.2 °F 94% 29.78 in 0.5 mi West 4.6 mph - N/A Fog Fog
9:24 PM 50.0 °F - 50.0 °F 100% 29.78 in 1.0 mi West 4.6 mph - N/A   Mostly Cloudy
9:27 PM 50.0 °F - 50.0 °F 100% 29.78 in 2.0 mi West 4.6 mph - N/A   Mostly Cloudy
9:31 PM 51.8 °F - 51.8 °F 100% 29.79 in 3.0 mi West 4.6 mph - N/A   Mostly Cloudy
9:46 PM 51.8 °F - 51.8 °F 100% 29.79 in 4.0 mi WNW 5.8 mph - N/A   Overcast
9:56 PM 52.0 °F - 51.1 °F 97% 29.81 in 5.0 mi WNW 5.8 mph - N/A   Overcast
10:56 PM 52.0 °F - 51.1 °F 97% 29.81 in 10.0 mi WNW 4.6 mph - N/A   Overcast
11:44 PM 51.8 °F - 50.0 °F 94% 29.81 in 10.0 mi WNW 5.8 mph - N/A   Overcast
11:56 PM 51.1 °F - 48.9 °F 92% 29.82 in 10.0 mi NW 4.6 mph - N/A   Overcast